Temp
63 59 58 59 50 45 43 50 54 50 51 55 56 54 51 43 51 50 52 53 54 54 56 57 65 66 67 68 69 69 70 71 72 74 75 76 77 78 78 79 79 79 79 79 79 78 78 78 77
58 62 57 52 43 38 43 51 53 52 50 50 50 48 44 42 47 48 49 55 56 56 57 58 64 66 66 67 67 68 69 70 70 71 72 74 75 76 77 78 78 78 78 78 78 78 77 77 77
59 60 52 47 40 40 44 49 49 52 53 53 45 45 43 40 46 47 51 57 57 55 56 60 64 65 65 66 67 67 68 68 69 69 70 71 73 74 75 76 77 76 76 77 77 77 76 76 76
56 54 51 42 38 44 48 47 51 51 53 52 45 37 41 47 46 49 54 54 53 54 56 60 63 64 64 65 65 66 67 67 67 67 68 69 71 72 73 74 75 75 75 76 76 76 76 75 75
53 48 40 36 39 44 42 47 50 50 51 49 51 38 38 46 48 49 52 53 50 51 52 55 61 62 63 64 64 65 65 66 66 66 66 66 67 70 70 70 72 74 75 76 76 76 76 75 75
47 46 35 33 39 43 43 48 50 48 48 47 45 40 40 49 48 48 51 50 51 50 51 52 56 59 61 62 62 63 63 63 63 63 64 64 64 65 67 69 69 70 73 76 76 76 75 75 75
44 40 36 35 40 40 47 49 45 46 47 45 49 39 39 45 49 50 50 50 49 49 48 50 50 52 55 58 59 60 60 61 60 61 61 61 61 62 63 64 66 69 70 71 75 75 75 75 75
46 43 36 39 41 41 47 47 47 45 41 49 48 36 33 44 48 48 48 46 47 47 46 47 47 47 46 47 55 55 56 57 57 57 58 57 56 58 60 60 63 65 68 69 72 75 75 74 74
48 38 33 39 42 41 45 44 43 44 44 41 41 41 44 47 47 44 42 42 42 44 43 44 44 45 45 47 48 48 51 52 52 52 54 52 51 52 54 57 60 62 64 66 68 71 74 72 71
42 34 39 40 39 40 43 44 44 43 40 38 38 43 47 46 44 40 39 38 38 39 40 40 40 41 42 48 42 43 45 44 45 46 47 48 50 51 53 54 57 58 60 62 64 65 69 69 66
39 36 40 41 43 44 45 42 43 40 37 38 37 39 43 43 41 40 38 38 37 37 38 39 40 39 39 39 38 38 39 40 41 43 44 45 47 48 49 50 52 52 56 56 57 58 61 67 66
39 39 40 42 42 43 43 45 41 42 39 44 43 43 43 41 40 38 37 36 36 37 38 38 38 38 37 36 36 36 37 38 39 40 43 41 41 43 46 48 49 52 53 53 55 55 58 61 67
40 37 40 40 41 40 44 39 39 39 41 43 44 44 41 40 39 38 38 37 36 36 37 36 37 36 37 36 34 35 35 36 37 38 41 41 40 40 42 44 47 49 51 51 52 52 55 57 60
38 38 37 38 40 40 39 37 38 36 39 41 42 39 40 39 38 37 37 36 37 37 36 37 37 36 37 34 34 34 35 36 37 37 39 41 40 39 40 41 43 45 48 51 52 51 53 56 58
38 33 34 34 37 37 37 35 34 38 40 39 39 40 39 39 39 38 37 36 36 36 37 37 36 37 35 34 34 34 35 37 35 37 39 40 41 39 39 39 40 41 44 47 50 51 52 52 54
32 30 26 30 35 34 35 30 35 37 38 35 37 39 38 38 38 38 38 37 36 36 36 37 41 36 34 34 33 34 34 34 34 35 36 40 41 40 38 38 38 40 41 43 45 48 49 50 50
27 21 23 27 34 31 30 28 33 35 36 34 35 35 36 36 36 37 37 36 35 35 35 34 34 34 33 33 33 32 33 33 33 34 35 38 40 40 38 38 38 39 39 39 42 43 47 47 49
21 21 25 24 27 29 26 23 30 34 34 32 32 33 35 35 35 37 36 36 35 34 34 33 33 33 32 31 31 31 31 32 33 33 35 38 38 39 38 38 38 39 38 39 40 40 44 46 48
19 18 19 24 29 24 25 26 29 32 31 29 29 30 32 34 36 38 36 35 33 32 32 32 32 31 30 29 29 29 28 29 30 33 36 37 37 38 37 37 37 37 37 36 38 38 39 41 44
25 22 21 25 28 24 21 22 28 31 31 30 30 30 32 32 32 33 32 32 32 32 31 31 32 32 31 30 29 29 28 29 29 32 34 36 36 37 38 36 36 36 36 36 36 37 37 39 43
23 19 21 22 27 26 22 23 25 29 32 29 31 31 34 33 31 31 27 29 28 29 29 31 31 31 30 30 31 30 30 30 30 30 30 33 35 35 36 36 35 35 35 34 35 35 36 35 39
24 25 25 24 18 13 18 13 21 22 20 21 27 25 28 29 33 32 27 22 25 25 28 29 30 31 31 30 28 26 27 27 28 27 29 30 33 34 35 35 35 35 35 34 34 39 36 37 35
24 26 24 21 12 11 15 10 18 21 19 21 18 23 23 27 30 30 29 26 24 22 22 23 26 27 29 28 28 26 25 26 26 26 26 27 30 32 34 34 34 34 35 34 34 34 35 36 36
27 23 22 18 7 2 14 12 15 17 22 25 18 22 24 25 28 30 31 28 21 15 15 21 19 25 21 22 24 24 23 23 24 25 25 26 28 30 32 34 34 34 34 34 34 34 34 35 36
19 13 2 2 -1 6 13 11 15 15 21 23 20 27 25 25 26 28 30 28 24 21 18 16 19 17 15 14 22 21 23 23 23 24 24 25 27 28 29 31 32 32 33 34 34 34 34 34 34
11 9 8 1 -2 8 11 5 20 16 23 25 24 26 28 27 30 30 30 29 27 24 21 19 16 13 14 12 14 20 23 24 24 24 24 25 25 27 29 29 31 31 32 33 33 33 33 33 33
11 3 11 10 4 5 0 10 20 23 22 23 25 28 25 24 27 28 29 29 28 27 26 25 22 15 12 14 11 14 20 22 23 23 24 24 26 28 29 30 31 33 32 32 32 31 31 32 33
13 9 6 6 1 -5 0 2 18 21 23 25 25 25 25 26 25 25 27 27 27 26 24 20 17 17 14 13 13 16 16 21 22 22 22 24 25 26 28 30 30 30 31 33 33 32 32 32 33
11 7 5 7 7 3 -2 7 14 20 24 24 24 26 25 24 26 26 26 25 25 22 19 19 18 15 13 13 12 12 14 15 19 21 22 23 25 26 26 27 28 30 31 31 30 31 32 33 33
10 11 13 9 6 7 7 9 10 11 15 26 26 28 24 25 23 22 23 23 21 21 21 20 20 18 17 13 10 9 4 8 14 17 19 22 22 25 26 28 28 29 30 32 31 30 32 32 32
MSLP
1011.80 1011.92 1012.00 1011.95 1012.94 1013.17 1012.05 1011.04 1010.26 1011.09 1011.58 1011.78 1012.46 1013.04 1013.80 1015.60 1016.34 1018.72 1019.18 1019.41 1019.78 1020.08 1019.83 1019.48 1018.92 1018.54 1018.19 1017.62 1017.33 1017.26 1017.00 1016.75 1016.41 1015.99 1015.77 1015.74 1015.74 1015.84 1015.70 1015.74 1015.76 1015.62 1015.55 1015.59 1015.69 1015.76 1015.91 1016.00 1016.24
1011.97 1011.90 1012.23 1012.67 1013.25 1013.18 1011.87 1010.84 1010.79 1011.30 1012.17 1012.93 1013.61 1014.72 1015.55 1017.25 1017.87 1018.79 1019.26 1019.54 1019.56 1020.03 1019.84 1019.40 1018.91 1018.74 1018.44 1017.90 1017.53 1017.54 1017.38 1017.34 1017.08 1016.73 1016.48 1016.19 1016.08 1016.04 1015.95 1015.81 1015.96 1015.95 1015.79 1015.68 1015.82 1015.96 1016.09 1016.25 1016.40
1012.11 1012.07 1012.56 1012.76 1013.01 1012.45 1011.68 1010.88 1011.14 1011.96 1012.64 1013.29 1014.83 1016.19 1017.13 1018.37 1018.97 1019.23 1019.44 1019.54 1019.66 1020.13 1019.92 1019.38 1018.91 1018.84 1018.75 1018.11 1017.71 1017.80 1017.77 1017.67 1017.56 1017.27 1017.05 1016.72 1016.48 1016.26 1016.16 1016.16 1015.99 1016.10 1016.10 1015.98 1015.95 1016.14 1016.29 1016.43 1016.53
1012.16 1012.55 1013.19 1012.92 1012.63 1011.77 1011.24 1010.94 1011.40 1012.46 1013.08 1013.65 1015.09 1017.16 1018.39 1018.83 1019.24 1019.37 1019.68 1019.81 1020.01 1020.16 1020.14 1019.59 1019.13 1019.02 1019.12 1018.34 1018.29 1018.55 1018.23 1018.01 1017.89 1017.58 1017.50 1017.35 1016.96 1016.73 1016.49 1016.35 1016.23 1016.06 1016.16 1016.11 1016.26 1016.32 1016.51 1016.63 1016.73
1012.07 1012.89 1013.45 1013.19 1012.23 1011.39 1011.00 1011.05 1011.61 1012.33 1013.00 1014.09 1014.91 1017.52 1018.85 1019.20 1019.41 1019.51 1019.75 1019.97 1020.53 1020.60 1020.62 1020.28 1019.81 1019.48 1019.42 1018.81 1019.09 1018.95 1018.73 1018.31 1018.14 1017.99 1017.88 1017.88 1017.60 1017.23 1016.99 1016.90 1016.55 1016.36 1016.15 1016.11 1016.25 1016.32 1016.54 1016.77 1016.92
1012.46 1012.94 1013.70 1013.23 1012.42 1011.68 1011.56 1011.70 1011.81 1012.55 1013.44 1014.49 1015.69 1017.45 1019.09 1019.44 1019.40 1019.98 1019.91 1020.25 1020.79 1020.87 1020.97 1021.01 1020.65 1020.03 1019.64 1019.63 1019.68 1019.44 1019.20 1018.87 1018.50 1018.20 1018.16 1018.21 1018.12 1017.91 1017.49 1017.22 1017.10 1016.85 1016.49 1016.24 1016.09 1016.17 1016.51 1016.67 1016.82
1012.62 1013.26 1013.23 1012.72 1012.19 1011.98 1011.65 1011.84 1012.50 1013.14 1013.80 1014.65 1015.56 1017.57 1019.29 1019.67 1019.62 1020.02 1020.19 1020.65 1020.86 1021.13 1021.22 1021.40 1021.28 1020.96 1020.93 1020.49 1020.28 1019.93 1019.77 1019.37 1019.19 1018.77 1018.64 1018.37 1018.53 1018.35 1018.21 1017.86 1017.68 1017.24 1017.01 1016.60 1016.16 1016.09 1016.22 1016.59 1016.68
1012.44 1012.89 1012.90 1012.30 1011.92 1011.68 1011.41 1012.05 1012.74 1013.46 1014.50 1015.02 1015.63 1017.06 1018.85 1019.07 1019.76 1019.98 1020.47 1020.98 1021.45 1021.37 1021.53 1021.75 1021.63 1021.43 1021.58 1021.47 1020.72 1020.48 1020.43 1020.12 1019.83 1019.43 1019.19 1018.92 1018.60 1018.58 1018.61 1018.36 1018.10 1017.73 1017.35 1017.04 1016.42 1016.33 1016.32 1016.25 1016.32
1011.97 1013.04 1013.05 1012.29 1012.01 1011.82 1011.96 1012.45 1013.30 1013.97 1014.79 1015.94 1016.62 1016.85 1017.23 1018.33 1019.46 1020.12 1020.95 1021.58 1021.80 1021.62 1021.96 1022.21 1021.90 1021.52 1021.61 1021.43 1021.33 1021.26 1021.01 1020.69 1020.16 1020.04 1019.68 1019.49 1019.15 1018.93 1018.83 1019.01 1018.60 1018.14 1018.01 1017.39 1017.11 1016.76 1016.56 1016.54 1016.54
1012.32 1013.24 1012.76 1012.35 1012.18 1012.26 1012.37 1012.68 1013.44 1014.37 1015.69 1016.84 1017.44 1017.64 1017.61 1018.32 1019.33 1020.43 1021.26 1021.85 1022.16 1022.32 1022.26 1022.52 1022.27 1022.15 1022.02 1021.95 1021.80 1021.72 1021.41 1021.39 1020.93 1020.68 1020.34 1019.93 1019.77 1019.54 1019.26 1019.18 1018.94 1018.72 1018.21 1018.20 1017.60 1017.29 1016.75 1016.80 1017.10
1012.58 1013.05 1012.90 1012.94 1012.89 1012.77 1012.92 1013.47 1013.91 1014.67 1015.87 1016.18 1016.79 1017.84 1018.39 1018.92 1019.70 1020.46 1021.41 1021.85 1022.19 1022.48 1022.53 1022.74 1022.74 1022.61 1022.47 1022.53 1022.18 1022.06 1021.86 1021.77 1021.70 1021.21 1021.10 1020.79 1020.35 1019.73 1019.67 1019.48 1019.37 1019.16 1018.87 1018.65 1018.43 1017.91 1017.65 1017.06 1017.00
1012.95 1013.45 1013.38 1013.59 1013.52 1013.24 1013.39 1013.75 1014.16 1014.58 1015.19 1015.31 1016.36 1017.36 1018.04 1018.90 1019.68 1020.46 1021.18 1021.91 1022.33 1022.64 1022.77 1023.07 1023.15 1022.90 1022.93 1022.83 1022.76 1022.56 1022.42 1022.11 1022.00 1022.03 1021.50 1021.45 1021.20 1020.42 1020.61 1020.32 1020.07 1019.89 1019.63 1019.34 1018.94 1018.83 1018.25 1017.85 1016.95
1013.10 1013.80 1014.05 1014.26 1014.09 1014.03 1013.77 1014.15 1014.55 1014.93 1015.29 1015.76 1017.00 1017.92 1018.52 1019.28 1020.00 1020.60 1021.08 1021.85 1022.54 1022.98 1023.15 1023.15 1023.11 1023.36 1023.36 1023.25 1023.07 1022.87 1022.80 1022.71 1022.58 1022.23 1021.85 1021.61 1021.69 1021.23 1021.45 1020.92 1020.69 1020.47 1020.20 1019.92 1019.61 1019.30 1018.71 1018.48 1017.99
1013.86 1014.36 1014.73 1014.82 1014.84 1014.80 1014.75 1014.93 1015.10 1015.68 1015.94 1016.54 1017.26 1018.17 1018.81 1019.25 1019.91 1020.65 1021.29 1022.03 1022.39 1022.81 1023.08 1023.43 1023.54 1023.77 1023.49 1023.34 1023.18 1023.14 1022.83 1023.08 1022.82 1022.58 1022.22 1021.91 1021.75 1022.43 1021.64 1021.33 1021.18 1020.84 1020.65 1020.49 1019.82 1019.45 1019.27 1018.75 1018.57
1014.55 1015.15 1015.36 1015.53 1015.65 1015.58 1015.59 1015.75 1015.35 1015.63 1016.44 1016.99 1017.58 1018.16 1018.76 1019.33 1019.88 1020.41 1021.15 1022.00 1022.63 1023.28 1023.33 1023.55 1023.68 1023.69 1023.73 1023.58 1023.38 1023.39 1023.11 1023.17 1023.04 1023.03 1022.69 1022.44 1022.45 1022.33 1021.93 1021.81 1021.54 1021.34 1020.99 1020.61 1020.14 1019.67 1019.38 1019.14 1018.81
1015.35 1015.80 1016.19 1016.15 1016.17 1016.40 1016.63 1015.85 1015.79 1016.16 1016.54 1017.26 1017.81 1018.31 1018.83 1019.42 1019.93 1020.59 1021.27 1021.97 1022.56 1022.95 1023.28 1023.42 1023.47 1023.88 1023.83 1023.98 1023.95 1023.81 1023.67 1023.45 1023.33 1023.19 1023.03 1022.85 1022.70 1022.47 1022.33 1022.07 1021.86 1021.89 1021.39 1020.87 1020.64 1020.28 1019.79 1019.60 1019.25
1016.50 1016.71 1016.77 1016.76 1016.77 1016.91 1017.26 1016.64 1016.54 1016.71 1016.99 1017.51 1018.00 1018.37 1018.89 1019.55 1020.23 1020.79 1021.37 1021.90 1022.39 1022.78 1023.23 1023.58 1023.90 1024.09 1024.05 1023.99 1023.97 1023.83 1023.64 1023.61 1023.61 1023.51 1023.28 1022.93 1022.83 1022.77 1022.72 1022.67 1022.56 1022.22 1021.77 1021.43 1021.11 1020.69 1020.49 1019.97 1019.65
1017.80 1017.73 1017.31 1017.18 1017.39 1017.38 1017.68 1017.29 1017.05 1017.24 1017.51 1017.79 1018.16 1018.48 1018.87 1019.41 1019.94 1020.56 1021.29 1021.94 1022.45 1022.85 1023.31 1023.71 1024.03 1024.17 1024.16 1024.18 1024.02 1023.94 1023.96 1023.96 1023.86 1023.71 1023.46 1023.36 1023.23 1023.12 1023.17 1022.94 1022.69 1022.43 1021.99 1021.74 1021.48 1021.28 1020.97 1020.55 1019.96
1017.89 1018.07 1018.03 1017.79 1017.84 1017.90 1017.77 1017.46 1017.22 1017.37 1017.67 1017.97 1018.17 1018.34 1018.61 1019.08 1019.59 1020.41 1021.27 1021.89 1022.59 1023.12 1023.46 1023.74 1023.95 1024.21 1024.34 1024.40 1024.59 1024.65 1024.67 1024.40 1024.26 1024.09 1023.84 1023.72 1023.55 1023.33 1023.11 1022.82 1022.70 1022.53 1022.38 1022.24 1022.14 1021.81 1021.60 1021.03 1020.41
1018.07 1018.35 1018.24 1018.25 1018.31 1018.60 1018.36 1017.53 1016.86 1016.89 1016.83 1016.96 1017.47 1018.05 1018.38 1019.06 1019.69 1020.59 1021.38 1021.99 1022.55 1023.08 1023.44 1023.81 1024.13 1024.32 1024.45 1024.70 1024.75 1024.84 1024.86 1024.75 1024.67 1024.43 1024.37 1024.20 1023.99 1023.58 1023.12 1022.98 1022.80 1022.73 1022.62 1022.52 1022.42 1022.25 1022.04 1021.66 1020.80
1018.64 1019.03 1019.07 1019.30 1019.12 1019.08 1019.21 1017.45 1016.35 1015.36 1015.49 1015.95 1016.59 1017.17 1017.85 1018.38 1019.45 1020.59 1021.53 1022.16 1022.68 1023.28 1023.75 1024.06 1024.41 1024.65 1024.75 1024.83 1024.74 1024.69 1024.58 1024.69 1024.53 1024.45 1024.26 1024.18 1023.84 1023.48 1023.39 1023.11 1022.96 1022.91 1022.79 1022.58 1022.37 1022.35 1022.36 1022.11 1021.52
1019.45 1019.69 1019.93 1020.29 1020.72 1020.92 1020.41 1019.16 1016.86 1015.89 1016.13 1016.34 1016.57 1017.04 1017.44 1018.15 1019.12 1020.15 1021.33 1022.20 1022.87 1023.38 1023.73 1024.13 1024.51 1024.75 1024.88 1024.84 1024.95 1025.15 1025.14 1025.11 1024.96 1024.84 1024.61 1024.24 1023.83 1023.42 1023.28 1023.11 1022.85 1022.79 1022.73 1022.67 1022.55 1022.27 1022.59 1022.46 1022.01
1020.18 1020.49 1020.90 1021.46 1022.16 1022.33 1021.62 1021.67 1017.56 1016.92 1016.88 1016.86 1016.95 1017.17 1017.55 1018.07 1018.75 1019.91 1020.89 1021.76 1022.66 1023.49 1023.92 1024.22 1024.55 1024.81 1024.94 1025.07 1025.21 1025.27 1025.19 1025.15 1025.14 1024.82 1024.64 1024.32 1023.96 1023.47 1023.29 1023.05 1022.84 1022.59 1022.48 1022.46 1022.47 1022.55 1022.71 1022.56 1022.23
1021.02 1021.48 1022.01 1022.61 1023.47 1023.48 1021.84 1021.69 1019.03 1017.93 1017.70 1017.17 1016.99 1017.03 1017.49 1018.22 1018.85 1019.70 1020.72 1021.85 1022.79 1023.71 1024.28 1024.35 1024.70 1024.97 1025.08 1025.26 1025.33 1025.36 1025.39 1025.32 1025.00 1024.98 1024.62 1024.40 1024.03 1023.50 1023.22 1023.01 1022.91 1022.53 1022.45 1022.38 1022.28 1022.28 1022.49 1022.41 1021.99
1022.12 1022.98 1023.84 1024.45 1025.03 1023.41 1022.30 1022.08 1019.02 1018.10 1017.84 1017.65 1017.39 1017.30 1017.69 1018.24 1018.89 1019.81 1020.87 1021.95 1022.88 1023.58 1024.16 1024.65 1024.90 1025.25 1025.34 1025.40 1025.47 1025.47 1025.45 1025.45 1025.20 1025.13 1024.70 1024.43 1024.01 1023.57 1023.29 1023.09 1022.86 1022.52 1022.43 1022.21 1022.06 1022.01 1021.81 1021.74 1021.58
1023.67 1024.43 1024.76 1025.02 1024.95 1023.98 1022.88 1021.50 1018.94 1018.27 1017.83 1017.49 1017.16 1017.56 1018.15 1018.75 1019.36 1020.06 1020.80 1021.62 1022.32 1023.03 1023.70 1024.31 1024.76 1025.08 1025.18 1025.42 1025.52 1025.48 1025.56 1025.46 1025.24 1024.97 1024.70 1024.41 1024.00 1023.48 1023.31 1022.96 1022.71 1022.46 1022.16 1021.91 1021.70 1021.53 1021.30 1021.23 1021.04
1024.86 1025.47 1025.36 1025.19 1025.28 1024.96 1023.01 1020.67 1019.10 1018.33 1018.09 1018.02 1018.06 1018.20 1019.11 1019.72 1020.20 1020.67 1021.11 1021.50 1021.94 1022.55 1023.19 1023.80 1024.44 1024.88 1025.06 1025.16 1025.38 1025.52 1025.53 1025.23 1025.08 1024.85 1024.49 1024.11 1023.77 1023.30 1022.77 1022.56 1022.52 1021.97 1021.64 1021.51 1021.22 1021.05 1020.92 1020.69 1020.48
1024.91 1025.58 1025.83 1025.82 1025.72 1025.40 1023.34 1021.84 1020.34 1019.39 1018.97 1018.66 1018.81 1019.14 1019.52 1019.92 1020.34 1020.54 1020.85 1021.23 1021.67 1022.08 1022.65 1023.38 1023.85 1024.41 1024.75 1025.03 1025.24 1025.40 1025.36 1025.33 1024.88 1024.58 1024.27 1023.86 1023.51 1023.00 1022.73 1022.39 1021.94 1021.55 1021.25 1020.94 1020.71 1020.50 1020.25 1019.93 1019.51
1025.40 1025.54 1025.77 1025.67 1025.57 1025.10 1024.49 1022.09 1020.83 1020.38 1019.61 1019.45 1019.53 1019.59 1019.76 1019.97 1020.26 1020.45 1020.70 1021.05 1021.45 1021.90 1022.50 1023.09 1023.82 1024.39 1024.77 1024.97 1025.27 1025.42 1025.29 1025.00 1024.72 1024.48 1024.01 1023.57 1023.02 1022.66 1022.23 1021.68 1021.27 1020.89 1020.44 1020.11 1019.87 1019.56 1019.34 1019.00 1018.64
1024.63 1024.49 1024.41 1024.82 1025.34 1025.07 1024.74 1022.57 1021.14 1020.73 1020.03 1019.47 1019.98 1020.06 1020.24 1020.30 1020.32 1020.60 1020.75 1021.08 1021.63 1022.02 1022.47 1022.90 1023.51 1024.07 1024.32 1024.68 1025.04 1025.15 1024.99 1024.84 1024.68 1024.25 1023.67 1023.10 1022.55 1021.97 1021.52 1020.99 1020.53 1020.14 1019.67 1019.20 1018.85 1018.45 1018.06 1017.55 1017.10
Wind_Speed
8 5 1 4 4 3 4 7 4 3 2 2 2 0 6 6 2 4 3 7 7 4 1 6 9 10 12 14 16 17 17 17 17 16 15 13 10 8 8 8 8 9 10 6 10 11 14 15 15
3 3 4 3 5 3 6 5 8 6 6 9 7 2 7 4 4 7 4 5 8 4 3 5 10 10 12 14 16 16 16 15 16 16 16 13 11 9 10 7 8 8 8 7 9 10 14 13 13
4 1 4 5 5 7 5 4 6 3 11 3 6 7 4 4 4 4 4 9 9 5 5 4 11 11 13 14 17 16 15 15 15 15 15 15 15 12 9 8 8 8 6 6 8 10 12 13 11
2 4 4 4 8 7 7 4 6 9 3 6 5 9 3 4 5 6 8 8 8 6 6 7 12 12 13 16 16 13 14 14 15 16 14 14 13 15 13 8 7 6 6 6 8 9 10 10 9
2 3 2 3 5 5 2 4 8 7 7 4 4 7 3 2 7 8 9 9 8 6 6 7 12 11 13 14 13 13 13 14 15 16 15 15 14 13 16 18 14 8 4 6 10 11 11 10 9
3 4 2 5 5 2 1 4 7 4 3 5 7 6 3 6 8 7 9 9 7 7 7 8 11 12 14 14 13 13 14 14 15 16 15 15 15 14 14 14 16 18 11 4 11 13 12 10 9
6 4 6 4 6 3 6 7 5 5 6 1 9 6 3 5 7 9 10 9 8 7 7 7 8 11 13 13 14 14 15 14 15 16 15 14 15 15 15 15 16 16 17 17 8 12 13 11 10
5 4 4 6 6 6 7 5 3 3 2 3 2 8 7 8 8 11 10 9 7 7 6 6 6 6 4 7 16 15 15 14 15 16 16 15 14 15 17 17 18 16 15 17 14 8 10 12 12
3 3 3 4 6 4 4 5 2 3 7 5 5 4 5 16 15 12 9 6 5 7 5 5 6 7 6 8 10 12 15 16 16 14 17 11 7 9 11 14 16 16 17 15 17 14 8 8 9
4 4 9 0 0 3 3 3 7 5 5 3 3 6 16 15 14 12 8 6 5 4 5 5 6 6 6 7 6 6 8 7 8 9 10 7 8 8 9 10 16 15 17 17 17 18 11 5 2
3 5 3 1 3 2 6 4 2 8 4 7 9 15 15 13 10 10 6 6 6 4 5 5 5 5 6 5 4 3 3 4 5 8 8 7 6 6 6 5 6 7 13 7 10 10 7 5 3
4 2 1 2 5 1 4 7 4 5 2 4 15 16 13 14 12 10 8 7 6 6 5 5 5 5 6 4 4 4 4 4 5 5 8 6 4 6 6 5 6 6 5 8 7 5 8 9 4
1 2 3 3 4 5 2 2 1 3 4 11 15 13 12 11 10 8 9 8 7 6 4 4 5 5 4 5 3 4 4 4 4 5 6 5 5 6 4 5 5 5 6 6 6 6 6 8 9
2 4 3 3 3 3 2 1 2 1 6 13 16 11 10 11 11 8 8 7 6 6 5 4 5 4 5 5 5 3 4 4 4 4 6 7 5 4 5 5 5 6 6 6 5 6 7 6 7
6 3 1 1 2 2 1 5 8 7 8 13 12 12 10 10 12 11 9 8 8 6 6 6 5 4 5 5 5 4 4 4 4 4 6 7 6 6 6 5 5 6 6 7 6 6 5 6 6
2 5 1 1 4 2 2 5 4 9 13 12 11 10 11 10 12 9 10 9 8 7 6 5 5 4 5 4 4 3 4 4 4 4 4 5 5 6 5 4 5 5 5 5 6 6 6 5 6
5 3 4 1 5 3 3 4 5 5 9 10 9 9 10 9 7 7 9 9 8 8 7 6 5 5 5 5 4 4 5 4 4 4 4 6 5 5 5 4 4 5 4 4 5 5 6 5 5
3 2 2 3 1 2 4 11 5 5 7 9 8 8 9 11 9 11 10 8 8 7 7 7 5 5 4 4 4 4 4 4 4 4 4 5 4 5 4 3 4 4 4 5 6 6 6 6 5
6 4 3 2 2 2 6 9 8 8 6 9 9 9 10 11 8 11 10 8 8 7 7 6 6 3 3 3 2 2 2 3 3 4 6 6 5 6 5 3 4 4 4 5 5 3 4 3 5
2 1 3 1 0 2 5 12 11 11 12 14 15 13 13 9 10 9 8 7 8 7 6 6 5 4 3 2 1 0 1 2 2 2 4 4 5 6 7 5 4 4 3 4 4 4 3 3 5
2 3 1 2 4 2 6 10 8 7 13 9 12 13 13 16 15 12 9 8 8 8 7 6 5 4 3 2 1 2 1 2 2 3 4 6 7 7 6 5 4 4 3 3 3 3 4 2 3
3 1 2 2 3 4 3 8 7 3 5 5 9 9 12 10 12 13 10 6 8 6 7 6 5 4 3 2 2 2 1 2 1 3 4 6 7 8 7 7 5 4 3 3 3 3 2 3 4
1 2 2 2 3 4 3 1 10 2 6 6 7 7 8 10 13 13 13 9 5 7 6 5 5 3 3 2 2 1 1 2 3 3 6 6 7 7 8 8 7 6 4 4 4 4 4 4 5
2 2 4 4 3 2 4 5 7 2 3 6 3 5 9 10 10 9 8 8 5 3 3 5 4 3 2 1 1 0 2 4 3 4 4 5 5 6 7 8 7 7 7 6 6 5 5 5 6
6 5 4 6 4 6 1 3 11 7 4 6 5 4 8 10 10 10 11 9 7 7 6 4 6 4 3 2 2 2 3 4 4 5 4 6 5 5 6 7 7 7 7 8 8 8 8 7 7
2 6 5 5 2 4 3 6 6 5 7 5 2 7 8 8 8 8 8 8 8 8 7 7 6 4 3 3 4 2 4 3 4 4 4 5 6 6 8 8 9 10 10 10 9 8 8 10 9
3 1 4 2 2 3 3 8 4 3 6 7 7 9 7 5 5 7 6 6 7 7 8 8 7 4 4 4 3 3 4 4 4 6 6 6 7 8 9 8 10 12 11 11 11 9 11 11 11
4 2 4 3 0 4 6 5 3 6 4 2 4 6 4 2 5 4 5 5 5 5 5 5 4 6 4 3 3 3 4 5 5 5 7 8 8 9 10 11 11 11 11 12 12 12 13 14 12
1 1 3 3 3 4 2 6 4 3 6 2 2 1 2 3 4 4 5 4 5 4 5 6 5 5 4 4 3 4 5 4 5 5 7 8 9 9 10 11 12 12 13 13 13 14 15 17 17
2 4 4 4 4 2 2 7 3 5 5 5 3 2 3 3 5 4 5 4 5 6 6 7 6 6 6 3 4 5 4 4 5 6 7 8 9 9 11 12 13 14 15 15 15 16 15 17 18
Wind_Direction
329 318 334 50 94 69 222 240 127 140 148 29 83 235 129 58 75 179 221 131 120 103 340 303 39 41 43 46 50 49 45 34 35 46 48 49 60 55 61 59 61 66 72 78 110 118 114 116 117
348 341 47 91 112 168 246 222 178 168 130 125 79 46 35 83 79 123 112 137 119 111 348 312 50 48 45 51 53 47 47 43 39 36 37 43 47 52 49 57 68 67 79 91 120 125 121 123 127
318 151 103 141 162 201 219 199 144 102 153 119 101 41 86 105 91 110 94 117 98 79 358 14 53 50 46 53 51 47 44 44 40 39 33 35 35 39 45 41 78 76 72 97 125 128 128 131 132
140 25 20 132 215 241 199 180 139 142 107 77 117 71 51 329 140 139 108 95 85 69 16 30 51 53 47 51 50 48 48 47 44 40 39 33 35 33 33 41 44 83 91 126 131 135 131 131 137
61 68 137 222 242 275 261 184 153 149 141 130 167 155 82 29 115 118 105 96 92 70 36 6 52 55 51 56 52 50 47 50 48 41 39 35 31 30 36 27 24 23 95 137 148 146 139 141 148
63 106 89 216 227 240 189 177 136 115 114 146 89 109 148 148 119 131 113 101 95 79 56 44 35 44 48 48 49 47 45 43 44 40 40 39 32 27 27 26 17 13 359 157 161 158 156 157 156
138 114 203 206 214 187 202 147 169 141 127 93 133 96 120 186 152 129 113 102 90 75 64 49 43 46 43 43 42 43 38 41 38 35 34 40 32 30 26 27 16 6 2 356 181 171 166 170 165
116 109 191 225 195 227 182 114 106 120 117 107 103 167 182 187 145 119 107 103 92 81 63 43 42 35 31 30 40 37 34 35 31 31 28 25 34 28 24 22 15 11 4 359 358 194 182 177 177
105 78 228 238 187 191 177 128 35 56 92 47 360 135 157 147 130 117 113 101 91 72 57 44 38 35 14 48 31 28 30 26 27 23 22 18 21 12 23 14 16 13 6 10 2 350 202 201 202
119 155 214 172 52 191 156 119 142 128 128 55 60 61 127 136 136 137 144 133 119 102 68 48 43 32 28 42 30 22 24 14 18 12 12 13 17 13 19 16 13 10 15 3 9 357 339 205 342
164 201 187 299 326 301 144 111 114 122 229 190 176 152 148 146 140 137 134 137 133 114 73 61 49 41 36 20 29 19 21 20 5 14 12 6 9 11 13 13 7 4 8 10 1 359 355 307 171
156 68 94 1 343 29 133 128 157 189 151 161 159 155 149 154 152 146 139 132 126 109 92 76 58 55 45 37 20 21 13 24 20 4 11 12 3 19 12 15 9 6 5 5 7 354 348 343 295
134 125 40 74 36 47 343 76 85 226 359 123 140 154 156 149 139 136 135 128 132 120 113 87 61 50 49 51 39 29 22 18 6 5 6 15 12 19 0 13 16 15 2 5 357 352 352 345 343
79 88 97 26 8 35 117 308 30 147 137 132 150 156 157 150 147 133 135 137 131 124 116 115 78 54 45 36 31 30 31 15 18 10 9 15 24 357 15 13 11 14 8 350 356 358 346 344 328
144 93 12 218 190 349 16 276 229 164 152 147 160 164 157 156 149 156 149 146 145 150 137 136 117 73 51 31 24 14 16 23 29 18 12 10 12 10 12 5 10 0 354 352 354 358 357 347 344
119 75 124 233 151 316 130 247 350 165 156 164 166 168 164 164 165 154 151 146 147 140 134 93 87 72 54 40 29 20 29 35 18 9 7 13 11 10 2 4 2 341 349 0 357 360 357 3 347
8 219 196 272 177 127 181 273 349 178 169 174 176 170 165 158 158 153 153 150 151 146 138 118 98 68 44 31 25 32 26 25 10 5 356 356 358 352 3 350 337 340 349 359 358 359 350 342 335
207 245 282 245 331 214 217 259 284 209 182 190 188 181 175 171 172 162 154 151 144 139 130 123 108 76 50 22 17 19 22 3 2 354 347 347 347 349 347 345 5 358 4 6 6 1 350 337 329
133 135 197 260 345 292 246 265 249 221 227 208 206 197 190 183 168 158 157 148 140 137 133 130 115 81 66 35 14 7 357 344 350 349 355 6 355 347 338 4 349 354 6 356 348 331 340 324 314
135 144 238 278 241 117 313 271 257 215 221 209 200 202 194 173 157 157 153 151 156 147 136 125 115 95 75 69 74 55 327 292 280 342 347 349 347 343 335 339 337 346 341 347 347 357 338 308 2
135 172 272 253 320 226 320 275 241 234 219 208 208 197 194 181 167 165 162 168 154 153 155 146 143 135 108 75 24 357 344 305 339 354 340 339 332 330 322 321 318 321 322 321 331 327 320 321 325
208 142 106 69 72 235 93 284 300 291 288 236 214 191 182 166 163 164 164 169 169 170 152 146 152 150 140 102 83 67 27 320 337 312 313 319 322 322 319 316 313 310 291 286 283 295 276 280 276
160 50 74 98 98 50 301 95 273 348 327 265 232 204 176 162 157 165 175 172 167 152 158 154 155 153 140 130 124 104 324 289 296 304 312 314 311 310 312 311 312 309 305 294 282 276 258 247 259
113 109 42 53 83 9 236 141 281 259 252 308 312 190 163 156 155 156 150 138 137 131 146 156 155 174 140 134 158 255 279 294 314 312 313 309 306 307 305 301 298 297 295 291 290 282 261 253 249
59 56 337 352 13 221 255 112 246 282 293 281 240 162 146 149 137 142 152 161 160 174 180 176 174 205 193 183 251 242 275 278 279 287 295 302 302 299 296 294 288 286 282 280 280 277 273 265 253
147 146 167 228 225 278 64 233 264 244 306 335 103 106 105 111 129 141 158 168 175 184 185 185 191 213 202 193 238 264 267 262 265 267 276 280 283 290 291 283 278 276 275 274 274 273 274 268 263
260 85 198 107 77 45 267 294 329 337 5 32 65 105 111 119 140 158 170 179 180 180 190 188 190 211 210 221 223 242 262 271 273 275 274 275 276 278 276 277 278 278 274 270 272 265 261 259 259
136 170 53 5 321 281 294 288 283 359 333 116 111 145 167 161 181 182 186 189 193 191 186 175 178 204 212 216 223 244 260 274 279 279 273 274 271 272 276 279 277 276 269 263 260 258 259 259 256
91 348 35 117 163 173 281 281 217 264 291 208 357 236 219 226 226 215 213 215 208 188 185 192 194 203 223 218 230 242 257 271 285 272 272 270 276 273 274 278 277 273 275 267 257 254 254 256 258
176 203 169 137 246 112 145 277 270 263 292 142 101 325 270 247 241 244 244 221 206 204 195 200 195 206 218 218 227 247 271 280 280 274 274 274 273 277 277 283 281 279 272 268 263 261 257 252 249